Terminal Aerodrome Forecast
Issued by NWS Austin/San Antonio, TX

Home | Current Version | Previous Version | Text Only | Print | Product List | Glossary On
Versions: 1 2 3 4 5 6 7 8 9 10 11 12 13 14 15 16 17
000
FTUS44 KEWX 041120
TAFAUS
TAF
KAUS 041120Z 0412/0518 16005KT 4SM BR OVC004
     FM041500 16010KT P6SM OVC015
     FM042000 15012G22KT P6SM BKN050
     FM050600 15005KT P6SM OVC015=

USA.gov is the U.S. government's official web portal to all federal, state and local government web resources and services.